RH
92 96 99 100 100 100 99 99 97 97 97 97 98 98 96 95 93 87 81 74 66 56 43 32 26 26 26 25 24 23 21 19 17 14 11 9 8 7 6 5 4 4
85 92 98 99 99 100 99 98 98 98 98 98 98 97 96 94 90 82 77 71 61 49 36 29 28 28 27 25 24 22 20 18 15 12 10 8 7 6 5 5 4 3
79 86 91 94 97 100 99 98 99 99 98 98 98 97 96 91 85 80 77 68 55 41 32 30 31 29 27 24 23 21 18 15 13 10 8 7 6 6 5 4 3 3
73 80 83 85 89 97 100 99 99 99 99 99 98 97 94 87 83 80 75 62 46 36 32 33 31 28 25 24 22 19 16 13 11 9 7 6 6 5 4 3 3 2
65 73 79 82 86 94 100 100 100 100 100 99 98 95 89 84 82 78 67 53 41 35 34 32 29 26 24 23 20 17 14 12 10 8 7 6 5 4 3 3 2 2
64 72 80 83 86 93 98 99 100 99 99 99 95 90 86 83 81 72 59 47 38 36 34 30 26 25 23 21 19 16 13 10 8 7 6 5 4 4 3 2 2 3
66 73 80 84 87 92 95 96 97 97 97 96 92 88 86 84 78 68 54 43 37 34 31 27 25 24 22 20 17 14 11 9 8 7 6 5 4 3 2 2 2 4
71 72 78 84 88 91 93 93 93 94 93 92 89 86 85 83 76 64 49 40 35 31 27 26 24 23 21 18 15 12 10 8 7 6 5 4 3 2 2 2 3 7
76 74 78 85 91 92 92 91 89 88 88 88 87 87 86 84 74 57 44 37 32 28 26 25 23 21 19 16 13 11 9 8 7 6 5 4 3 2 2 3 5 10
83 81 82 86 91 92 89 87 86 85 87 89 89 90 89 82 66 49 39 34 29 25 25 23 22 20 17 14 12 10 8 7 7 6 4 3 2 2 2 5 9 13
88 86 86 87 89 88 86 85 85 87 89 91 92 93 89 75 56 42 35 30 25 24 24 22 21 18 15 13 11 9 8 7 6 5 4 3 2 2 4 7 11 14
93 90 90 90 87 85 85 86 88 89 91 93 95 94 83 63 46 38 32 27 24 23 22 21 19 16 13 11 10 9 8 7 6 5 3 2 2 3 6 11 14 16
96 93 92 90 87 86 87 89 90 92 95 96 95 88 70 51 40 34 28 24 23 22 21 20 16 14 12 10 9 8 7 7 6 4 3 2 3 5 9 13 15 18
97 95 92 89 89 89 90 91 92 95 96 95 91 76 57 43 35 29 24 22 22 21 20 17 14 12 11 9 8 8 7 7 5 3 3 2 4 8 13 16 18 21
95 92 90 88 89 90 90 92 94 96 95 92 81 63 46 37 31 25 22 21 21 20 17 14 12 10 9 8 8 7 7 6 4 3 2 2 6 12 15 18 20 23
89 87 86 86 88 89 91 93 94 94 92 84 67 49 39 33 26 22 21 21 21 18 15 13 11 9 8 8 8 7 7 6 4 3 2 3 8 14 17 21 24 26
83 83 83 83 86 89 91 92 93 91 85 71 53 41 35 28 22 21 21 21 19 16 13 11 9 8 8 8 7 7 6 5 3 2 3 6 12 15 18 23 28 30
79 80 80 81 86 90 91 91 90 84 72 56 43 36 30 23 21 21 21 20 17 14 11 10 9 8 8 7 7 7 5 4 3 2 4 9 14 17 19 24 28 32
78 78 78 83 88 90 90 87 81 70 57 45 38 31 24 21 21 22 20 18 15 12 10 9 8 8 8 8 7 6 5 3 3 3 5 10 14 17 21 25 28 32
74 75 79 86 90 89 85 77 66 55 47 40 33 25 21 21 22 21 18 15 12 11 9 9 9 8 8 8 6 5 4 3 3 4 7 11 16 19 23 27 30 33
71 76 82 87 86 80 71 62 53 47 42 35 27 22 22 22 21 19 15 13 11 10 9 8 9 9 8 7 5 4 3 3 4 7 10 14 18 24 28 31 33 37
73 78 82 81 75 67 59 53 49 43 36 29 23 22 23 22 19 16 13 11 10 9 9 9 9 9 7 6 4 3 3 4 6 10 14 17 22 28 33 35 39 43
73 76 76 71 64 57 53 50 45 37 30 25 23 23 22 20 18 15 12 11 10 8 9 9 9 8 6 4 4 3 4 6 9 12 16 20 26 33 37 40 46 47
67 68 67 64 58 54 51 46 38 31 25 24 24 23 22 20 17 14 12 10 9 9 9 9 8 7 5 3 3 5 6 9 12 15 18 23 31 36 40 46 49 42
60 61 61 59 55 51 46 38 31 27 24 25 26 24 22 19 15 13 11 9 9 9 9 9 8 5 4 3 4 7 10 13 15 17 21 27 34 39 44 48 42 29
58 58 56 54 50 44 38 32 28 26 26 26 26 24 20 16 13 11 10 9 9 9 9 9 7 4 3 4 6 11 15 17 19 21 25 31 36 41 45 41 29 18
Wind_Speed
33 34 35 36 36 36 37 37 37 37 37 37 37 37 36 35 34 34 33 33 32 32 32 34 35 37 38 39 39 40 40 41 41 41 41 42 42 43 43 44 44 43
32 33 33 34 35 36 36 36 37 37 37 37 37 36 35 34 34 33 32 32 31 32 33 35 36 38 39 39 40 40 41 41 41 41 41 42 42 43 43 43 43 42
30 31 32 33 34 35 36 36 36 36 36 36 36 35 34 34 33 32 32 31 32 33 34 36 37 38 39 39 40 41 41 41 41 41 41 42 43 43 43 42 41 40
30 31 32 33 34 35 35 36 35 35 35 35 34 34 33 33 32 32 31 31 32 34 36 37 38 39 39 39 40 41 41 41 41 41 41 42 43 43 42 41 39 37
30 31 32 33 35 35 35 35 35 35 34 34 33 33 32 32 31 31 31 32 34 35 37 38 38 39 39 39 40 41 41 41 42 42 41 42 42 42 41 39 36 34
30 32 33 34 35 35 35 34 34 34 34 33 32 32 32 31 31 31 32 33 35 36 37 38 39 39 40 40 40 41 41 41 41 41 41 41 42 41 40 38 34 31
31 32 33 34 34 34 34 34 33 33 33 32 32 32 31 31 31 32 32 34 35 37 38 39 39 40 40 40 41 41 41 41 41 41 41 41 41 39 38 36 33 30
33 33 33 33 33 33 33 33 33 32 32 32 32 32 31 32 32 32 33 34 36 37 38 39 40 40 40 41 41 42 41 41 41 41 41 41 39 37 35 34 31 29
33 33 33 33 33 32 32 32 32 32 32 32 32 32 32 32 32 32 34 35 36 37 38 39 40 40 41 41 42 42 42 41 41 41 41 40 37 35 33 32 30 28
33 33 33 33 32 32 31 31 31 31 31 32 32 32 32 32 32 33 34 35 36 38 39 40 40 40 41 42 43 43 42 42 41 41 40 38 35 33 31 30 29 28
33 33 33 32 31 31 31 30 31 31 31 32 32 32 32 32 32 34 35 36 37 38 39 40 40 41 42 43 43 44 43 42 42 41 40 37 34 31 30 29 28 28
33 32 32 32 31 31 30 30 31 31 31 32 32 32 32 32 33 35 35 36 38 39 40 40 41 41 42 43 44 44 44 43 42 41 38 35 32 30 29 29 28 28
32 32 32 31 31 30 30 31 31 31 31 31 31 31 32 33 34 35 36 37 38 39 40 40 41 41 42 43 44 44 44 43 42 40 37 34 31 29 29 28 28 28
32 32 31 30 30 30 31 31 31 31 31 31 31 31 32 34 34 35 36 37 39 40 40 40 41 42 43 44 44 44 44 43 42 40 37 33 30 29 28 28 28 28
31 31 30 30 30 31 31 31 31 31 31 31 31 31 33 34 34 35 37 38 39 40 40 41 41 42 43 44 44 44 44 44 42 39 36 32 30 29 28 27 28 28
31 30 30 30 31 31 31 31 31 31 30 30 31 32 33 34 34 36 37 39 40 40 40 41 41 42 43 44 45 45 45 44 41 38 35 32 31 29 28 27 28 29
31 31 31 31 31 31 31 31 30 30 30 31 32 33 34 34 35 36 38 39 40 40 40 40 41 42 44 44 45 45 45 44 41 36 33 32 31 30 28 27 28 29
31 31 31 31 32 31 30 30 30 30 30 31 33 33 34 34 36 37 39 40 40 40 39 40 40 42 44 44 45 45 45 44 40 35 32 31 31 30 29 28 29 29
32 32 32 31 31 30 30 30 29 30 31 32 33 33 34 35 37 38 39 40 40 40 39 39 40 42 44 44 45 45 44 43 40 35 32 32 32 30 29 29 30 30
32 32 31 31 30 30 29 29 30 31 32 33 34 33 34 36 38 39 39 40 40 39 39 38 39 41 43 44 44 44 42 41 39 35 33 33 32 31 30 31 31 32
31 31 30 30 30 29 29 29 30 32 33 34 34 34 35 37 38 39 39 39 39 39 39 38 39 41 43 43 42 42 41 40 37 35 35 34 33 32 31 31 32 33
31 30 29 29 29 29 29 30 32 33 33 34 34 35 36 38 39 39 39 39 39 39 39 38 38 40 42 42 40 40 39 38 36 35 35 35 33 32 32 32 33 35
30 29 29 29 30 30 30 31 32 33 33 34 35 36 37 39 39 39 39 38 38 39 39 39 38 39 41 40 39 38 38 37 36 35 35 35 34 33 32 33 34 36
29 29 29 30 30 31 32 32 33 33 33 35 36 37 38 39 39 39 39 38 38 38 39 40 38 38 39 39 37 36 36 36 36 36 36 36 36 34 33 33 35 36
29 29 30 31 31 32 32 33 33 33 34 36 37 38 38 39 39 39 38 37 37 38 39 39 38 37 37 36 36 35 36 36 37 36 37 37 37 35 33 34 35 37
30 30 31 32 32 33 33 33 33 34 35 36 37 38 39 38 38 39 38 36 37 38 39 39 38 36 34 34 35 35 36 37 37 37 38 38 37 35 34 35 36 37
Wind_Direction
265 265 265 266 268 269 270 272 273 274 275 275 276 277 278 278 279 279 281 283 285 288 292 296 300 303 305 306 306 307 307 308 310 311 312 313 313 313 314 314 313 313
265 265 266 267 267 268 269 270 271 272 273 273 274 275 276 277 278 280 282 285 288 291 295 299 303 305 305 306 307 308 308 310 311 312 313 312 313 313 313 313 312 311
264 265 265 266 266 267 267 268 269 270 271 271 272 273 275 277 279 282 285 287 290 293 297 301 304 305 305 306 307 308 309 310 311 312 312 312 312 313 313 313 311 309
262 263 264 265 265 265 266 267 268 269 269 270 272 273 275 278 281 285 287 289 292 296 300 302 303 304 305 306 307 308 309 309 310 311 311 312 312 313 313 312 310 307
261 262 263 264 265 265 265 266 267 269 270 271 273 275 278 281 284 286 288 290 293 297 300 302 303 303 304 306 307 307 308 309 309 310 311 312 312 313 312 310 307 303
263 263 262 263 264 264 264 265 267 269 270 273 275 277 279 282 285 286 287 291 295 298 301 301 302 303 304 306 306 306 307 308 309 310 311 312 312 312 310 307 303 300
267 264 262 262 262 262 264 265 267 269 271 274 276 278 281 283 284 285 287 292 296 299 300 301 302 303 304 305 305 305 307 307 309 310 312 312 312 310 308 304 301 298
270 266 263 261 260 260 262 265 267 269 272 274 276 278 280 281 282 285 289 294 297 298 299 300 301 303 304 305 305 305 306 307 309 311 312 312 310 307 304 300 298 297
270 267 264 261 259 259 261 264 267 270 272 273 275 277 279 280 282 287 291 295 297 297 298 299 301 303 304 304 304 305 306 308 310 311 311 310 308 304 300 296 296 295
270 268 265 261 259 259 262 264 267 270 271 273 274 276 278 280 284 289 293 295 296 297 298 299 301 303 303 303 304 305 307 309 310 310 310 308 305 300 296 294 294 294
270 268 264 261 259 260 263 266 268 269 270 272 274 276 279 281 286 291 294 295 296 296 298 300 301 302 303 303 304 305 307 308 309 309 308 306 302 297 293 293 293 291
271 267 263 260 259 262 265 267 268 269 270 272 274 277 280 283 288 292 294 294 295 297 298 300 301 302 302 303 303 305 306 307 308 307 306 302 298 294 292 291 291 289
269 265 260 258 260 263 266 267 267 268 270 272 274 277 281 286 290 292 293 294 295 297 298 299 300 301 301 302 302 304 305 306 306 306 303 299 294 291 291 290 289 288
267 262 259 258 261 265 266 266 267 268 270 272 275 278 282 287 290 291 293 294 295 297 298 299 300 301 300 300 302 303 304 305 305 304 301 297 292 291 290 290 288 287
265 261 259 260 263 266 266 266 267 269 270 273 276 280 284 288 290 291 293 294 296 297 298 299 299 299 299 300 301 302 303 304 304 302 299 293 290 290 290 288 288 288
264 260 259 261 264 265 265 266 267 269 271 274 278 282 286 288 290 291 293 294 296 297 298 298 298 298 299 300 301 301 302 303 303 300 296 292 290 290 289 289 289 291
264 260 260 262 264 264 265 265 267 269 272 276 280 284 287 289 290 292 293 294 295 296 296 296 297 297 298 299 300 301 302 302 300 296 292 290 290 290 290 289 290 290
262 260 261 262 263 263 264 265 267 271 274 277 281 284 286 288 290 291 292 293 294 294 294 295 296 296 297 298 300 301 301 301 299 295 290 288 288 289 290 290 290 289
261 260 261 261 261 261 263 265 268 272 275 279 283 285 287 289 290 291 292 293 293 293 294 294 295 296 297 298 299 300 299 298 297 295 291 289 289 290 292 293 292 291
260 260 260 259 259 261 263 267 270 274 278 281 283 286 288 289 290 291 291 292 293 293 293 294 295 296 297 298 298 298 297 295 295 294 292 291 292 294 295 295 294 292
259 258 257 257 259 262 265 269 273 277 280 282 284 286 288 289 290 290 290 291 292 292 293 293 294 295 296 296 296 295 294 293 293 292 291 292 293 296 297 296 295 295
257 256 256 258 261 265 268 272 275 278 280 282 285 287 288 288 289 289 290 291 291 292 293 294 294 295 295 295 293 292 291 291 291 290 290 292 294 296 297 296 296 296
256 256 258 261 264 267 271 273 276 279 280 282 284 286 287 287 288 289 290 291 291 292 293 294 295 294 294 293 291 289 289 289 289 289 290 291 293 295 295 295 295 295
258 259 261 263 266 269 272 275 277 279 281 283 284 285 286 287 289 290 290 291 292 292 293 294 294 292 291 290 288 286 287 288 288 289 290 290 292 294 294 293 293 294
261 262 264 266 269 271 273 275 277 279 281 283 284 285 287 288 290 290 290 290 291 292 292 293 293 290 287 286 285 284 285 287 287 288 289 289 291 292 292 292 293 294
263 264 266 268 271 272 274 276 278 280 282 283 285 286 288 289 289 290 289 289 289 290 291 292 292 288 284 283 284 284 284 285 287 288 288 289 291 292 292 293 294 294